When you browse on this site, cookies collect data to enhance your experience and personalize the content and advertising you see.
Visit our Privacy Policy to learn more. By continuing to use the site, you agree to this use of cookies and data.
  • In Czech Republic
  • List of Countries
  • For 7 days
  • Water Temperature
  • Satellite Maps
  • Weather Map
  • Weather Widgets
  • user-avatar
    Login

    Hourly Weather Wiktoria

    Today, 22 April, Monday

    Time Temperature Precipitation Wind Pressure Humidity
    00:00 +20°C° 0.4 mm 1 mps 754 mmHg 86%
    01:00 +19°C° 0.4 mm 1 mps 755 mmHg 89%
    02:00 +19°C° 0.1 mm 1 mps 755 mmHg 90%
    03:00 +19°C° 0.1 mm 1 mps 754 mmHg 91%
    04:00 +18°C° 0 mm 1 mps 754 mmHg 91%
    05:00 +18°C° 0 mm 1 mps 754 mmHg 91%
    06:00 +18°C° 0 mm 1 mps 755 mmHg 91%
    07:00 +18°C° 0 mm 1 mps 755 mmHg 90%
    08:00 +18°C° 0 mm 2 mps 755 mmHg 87%
    09:00 +18°C° 0 mm 2 mps 755 mmHg 85%
    10:00 +19°C° 0 mm 2 mps 756 mmHg 82%
    11:00 +20°C° 0.1 mm 2 mps 755 mmHg 77%
    12:00 +21°C° 0.1 mm 3 mps 755 mmHg 72%
    13:00 +22°C° 0.1 mm 3 mps 755 mmHg 68%
    14:00 +22°C° 0 mm 3 mps 755 mmHg 65%
    15:00 +22°C° 0 mm 4 mps 755 mmHg 63%
    16:00 +22°C° 0 mm 4 mps 755 mmHg 61%
    17:00 +21°C° 0 mm 4 mps 755 mmHg 63%
    18:00 +20°C° 0 mm 4 mps 756 mmHg 66%
    19:00 +18°C° 0 mm 4 mps 756 mmHg 69%
    20:00 +18°C° 0 mm 4 mps 756 mmHg 71%
    21:00 +17°C° 0 mm 4 mps 757 mmHg 73%
    22:00 +15°C° 0 mm 4 mps 757 mmHg 75%
    23:00 +15°C° 0 mm 4 mps 757 mmHg 77%

    Tomorrow, 23 April, Tuesday

    Time Temperature Precipitation Wind Pressure Humidity
    00:00 +14°C° 0 mm 4 mps 757 mmHg 80%
    01:00 +14°C° 0 mm 3 mps 757 mmHg 82%
    02:00 +14°C° 0 mm 3 mps 757 mmHg 83%
    03:00 +13°C° 0 mm 3 mps 757 mmHg 85%
    04:00 +14°C° 0 mm 2 mps 757 mmHg 87%
    05:00 +14°C° 0 mm 2 mps 757 mmHg 87%
    06:00 +14°C° 0 mm 2 mps 757 mmHg 88%
    07:00 +14°C° 0 mm 2 mps 758 mmHg 88%
    08:00 +16°C° 0 mm 2 mps 758 mmHg 81%
    09:00 +18°C° 0 mm 2 mps 758 mmHg 74%
    10:00 +21°C° 0 mm 2 mps 758 mmHg 66%
    11:00 +23°C° 0 mm 2 mps 757 mmHg 64%
    12:00 +24°C° 0 mm 1 mps 757 mmHg 62%
    13:00 +25°C° 0 mm 1 mps 757 mmHg 60%
    14:00 +25°C° 0 mm 1 mps 756 mmHg 59%
    15:00 +25°C° 0 mm 1 mps 756 mmHg 59%
    16:00 +25°C° 0 mm 1 mps 756 mmHg 59%
    17:00 +23°C° 0 mm 1 mps 756 mmHg 65%
    18:00 +21°C° 0 mm 2 mps 757 mmHg 70%
    19:00 +19°C° 0 mm 3 mps 757 mmHg 76%
    20:00 +18°C° 0 mm 3 mps 757 mmHg 77%
    21:00 +17°C° 0 mm 3 mps 757 mmHg 79%
    22:00 +17°C° 0 mm 3 mps 757 mmHg 81%
    23:00 +16°C° 0 mm 3 mps 757 mmHg 83%

    Day after tomorrow, 24 April, Wednesday

    Time Temperature Precipitation Wind Pressure Humidity
    00:00 +16°C° 0 mm 3 mps 757 mmHg 85%
    01:00 +14°C° 0 mm 3 mps 757 mmHg 87%
    02:00 +15°C° 0 mm 2 mps 756 mmHg 88%
    03:00 +15°C° 0 mm 2 mps 756 mmHg 90%
    04:00 +15°C° 0 mm 2 mps 756 mmHg 91%
    05:00 +15°C° 0 mm 2 mps 756 mmHg 89%
    06:00 +15°C° 0 mm 2 mps 756 mmHg 87%
    07:00 +16°C° 0 mm 2 mps 757 mmHg 86%
    08:00 +17°C° 0.2 mm 2 mps 757 mmHg 84%
    09:00 +18°C° 0.2 mm 1 mps 757 mmHg 83%
    10:00 +19°C° 0.2 mm 1 mps 757 mmHg 81%
    11:00 +21°C° 0 mm 1 mps 756 mmHg 75%
    12:00 +23°C° 0 mm 1 mps 756 mmHg 69%
    13:00 +24°C° 0 mm 1 mps 755 mmHg 63%
    14:00 +24°C° 0.2 mm 2 mps 755 mmHg 61%
    15:00 +25°C° 0.2 mm 2 mps 755 mmHg 60%
    16:00 +25°C° 0.2 mm 3 mps 754 mmHg 59%
    17:00 +23°C° 0 mm 2 mps 755 mmHg 64%
    18:00 +20°C° 0 mm 2 mps 755 mmHg 68%
    19:00 +20°C° 0 mm 1 mps 755 mmHg 73%
    20:00 +18°C° 0 mm 2 mps 755 mmHg 76%
    21:00 +17°C° 0 mm 2 mps 756 mmHg 79%
    22:00 +16°C° 0 mm 3 mps 756 mmHg 82%
    23:00 +14°C° 0 mm 3 mps 756 mmHg 80%

    25 April, Thursday

    Time Temperature Precipitation Wind Pressure Humidity
    00:00 +14°C° 0 mm 3 mps 756 mmHg 78%
    01:00 +13°C° 0 mm 3 mps 755 mmHg 77%
    02:00 +13°C° 0 mm 2 mps 755 mmHg 76%
    03:00 +13°C° 0 mm 2 mps 755 mmHg 75%
    04:00 +12°C° 0 mm 2 mps 755 mmHg 74%
    05:00 +12°C° 0 mm 2 mps 755 mmHg 76%
    06:00 +10°C° 0 mm 2 mps 755 mmHg 77%
    07:00 +10°C° 0 mm 2 mps 755 mmHg 78%
    08:00 +13°C° 0 mm 2 mps 755 mmHg 70%
    09:00 +15°C° 0 mm 2 mps 756 mmHg 61%
    10:00 +18°C° 0 mm 2 mps 756 mmHg 52%
    11:00 +19°C° 0 mm 2 mps 755 mmHg 47%
    12:00 +21°C° 0 mm 3 mps 754 mmHg 43%
    13:00 +22°C° 0 mm 4 mps 754 mmHg 38%
    14:00 +22°C° 0 mm 4 mps 753 mmHg 38%
    15:00 +22°C° 0 mm 4 mps 753 mmHg 38%
    16:00 +22°C° 0 mm 4 mps 752 mmHg 39%
    17:00 +20°C° 0 mm 4 mps 752 mmHg 45%
    18:00 +18°C° 0 mm 3 mps 752 mmHg 52%
    19:00 +16°C° 0 mm 3 mps 752 mmHg 59%
    20:00 +14°C° 0 mm 3 mps 752 mmHg 64%
    21:00 +14°C° 0 mm 3 mps 752 mmHg 70%
    22:00 +13°C° 0 mm 3 mps 753 mmHg 75%
    23:00 +12°C° 0 mm 3 mps 752 mmHg 77%

    26 April, Friday

    Time Temperature Precipitation Wind Pressure Humidity
    00:00 +12°C° 0 mm 3 mps 752 mmHg 79%
    01:00 +11°C° 0 mm 3 mps 751 mmHg 81%
    02:00 +11°C° 0 mm 3 mps 751 mmHg 83%
    03:00 +11°C° 0 mm 3 mps 751 mmHg 85%
    04:00 +11°C° 0 mm 3 mps 751 mmHg 87%
    05:00 +11°C° 0 mm 3 mps 751 mmHg 87%
    06:00 +11°C° 0 mm 4 mps 751 mmHg 87%
    07:00 +11°C° 0 mm 4 mps 752 mmHg 86%
    08:00 +12°C° 0.1 mm 5 mps 752 mmHg 73%
    09:00 +13°C° 0.1 mm 6 mps 753 mmHg 61%
    10:00 +14°C° 0.1 mm 7 mps 754 mmHg 48%
    11:00 +14°C° 0 mm 7 mps 754 mmHg 45%
    12:00 +14°C° 0 mm 7 mps 754 mmHg 43%
    13:00 +14°C° 0 mm 7 mps 754 mmHg 41%
    14:00 +14°C° 0 mm 7 mps 754 mmHg 40%
    15:00 +12°C° 0 mm 7 mps 754 mmHg 40%
    16:00 +12°C° 0 mm 7 mps 754 mmHg 40%
    17:00 +12°C° 0 mm 5 mps 755 mmHg 42%
    18:00 +11°C° 0 mm 4 mps 755 mmHg 44%
    19:00 +10°C° 0 mm 3 mps 756 mmHg 46%
    20:00 +9°C° 0 mm 3 mps 757 mmHg 50%
    21:00 +8°C° 0 mm 3 mps 757 mmHg 55%
    22:00 +7°C° 0 mm 3 mps 757 mmHg 59%
    23:00 +7°C° 0 mm 3 mps 757 mmHg 64%

    27 April, Saturday

    Time Temperature Precipitation Wind Pressure Humidity
    00:00 +5°C° 0 mm 3 mps 757 mmHg 69%
    01:00 +6°C° 0 mm 2 mps 757 mmHg 75%
    02:00 +5°C° 0 mm 2 mps 757 mmHg 77%
    03:00 +5°C° 0 mm 2 mps 757 mmHg 80%
    04:00 +5°C° 0 mm 2 mps 757 mmHg 83%
    05:00 +5°C° 0 mm 2 mps 758 mmHg 84%
    06:00 +4°C° 0 mm 2 mps 758 mmHg 86%
    07:00 +4°C° 0 mm 2 mps 759 mmHg 87%
    08:00 +7°C° 0 mm 3 mps 759 mmHg 77%
    09:00 +9°C° 0 mm 3 mps 759 mmHg 67%
    10:00 +11°C° 0 mm 4 mps 759 mmHg 57%
    11:00 +13°C° 0 mm 4 mps 758 mmHg 54%
    12:00 +14°C° 0 mm 4 mps 758 mmHg 51%
    13:00 +15°C° 0 mm 4 mps 757 mmHg 47%
    14:00 +15°C° 0 mm 4 mps 757 mmHg 48%
    15:00 +15°C° 0 mm 4 mps 757 mmHg 48%
    16:00 +15°C° 0 mm 4 mps 757 mmHg 49%
    17:00 +14°C° 0 mm 4 mps 757 mmHg 55%
    18:00 +12°C° 0 mm 3 mps 757 mmHg 61%
    19:00 +11°C° 0 mm 3 mps 757 mmHg 68%
    20:00 +10°C° 0 mm 3 mps 757 mmHg 71%
    21:00 +9°C° 0 mm 2 mps 758 mmHg 74%
    22:00 +8°C° 0 mm 2 mps 758 mmHg 78%
    23:00 +8°C° 0 mm 2 mps 757 mmHg 81%
    Show more